Flag for Germany Weather past 2 weeks in Essen, North Rhine-Westphalia, Germany

Now
57 °F

Scattered clouds.


Feels Like: 56 °F
Forecast: 48 / 61 °F
Wind: 7 mph from West

Location: Duesseldorf

Current Time: Sep 3, 2015 at 11:05:31 AM

Latest Report: Sep 3, 2015 at 10:20 AM


Visibility: 4 mi

Pressure: 29.98 "Hg

Humidity: 94%

Dew point: 55 °F

Location of EssenLocation

Historic Weather in Essen — Graph

°F

Essen temperature yesterday

Maximum temperature yesterday: 66 °F (at 1:20 PM)
Minimum temperature yesterday: 52 °F (at 3:20 AM)
Average temperature yesterday: 58 °F

Past Weeks' High & Low Weather Summary

 TemperatureHumidityPressure
High90 °F (Aug 30, 3:20 PM)100% (Aug 27, 8:20 PM)30.24 "Hg (Aug 27, 8:20 PM)
Low52 °F (Aug 29, 2:20 AM)30% (Aug 22, 5:20 PM)29.50 "Hg (Aug 24, 4:50 PM)
Average67 °F70%29.97 "Hg
* Reported Aug 19 9:20 AM — Sep 3 9:50 AM, Essen, Weather by CustomWeather, © 2015

Note: Actual official high and low records may vary slightly from our data, if they occured in-between our weather recording intervals... More about our weather records

Advertising

Essen weather history for previous 24 hours

 ConditionsComfort  
Time TempWeatherWind HumidityBarometerVisibility
9:50 AM
Thu, Sep 3
57 °FPassing clouds.6 mph94%29.95 "Hg4 mi
9:20 AM57 °FScattered clouds.6 mph94%29.98 "Hg4 mi
8:50 AM55 °FScattered clouds.3 mph100%29.95 "Hg4 mi
8:20 AM54 °FCool.5 mph100%29.95 "Hg2 mi
7:50 AM52 °FCool.6 mph100%29.95 "Hg2 mi
7:20 AM52 °FCool.1 mph94%29.95 "Hg1 mi
6:50 AM52 °FCool.1 mph94%29.95 "Hg2 mi
6:20 AM52 °FCool.2 mph94%29.95 "Hg1 mi
5:20 AM55 °FFog.3 mph94%29.98 "Hg4 mi
4:50 AM55 °FPassing clouds.2 mph94%29.98 "Hg4 mi
4:20 AM55 °FLight rain. Passing clouds.2 mph94%29.98 "Hg5 mi
3:50 AM55 °FPartly cloudy.3 mph94%29.98 "Hg5 mi
3:20 AM55 °FPassing clouds.3 mph94%29.98 "Hg5 mi
2:50 AM55 °FPassing clouds.3 mph94%29.98 "Hg6 mi
2:20 AM55 °FLight rain. Clear.3 mph94%29.98 "HgN/A
1:50 AM55 °FLight rain. Mostly cloudy.6 mph94%29.98 "HgN/A
1:20 AM57 °FLight rain. Mostly cloudy.3 mph82%29.98 "HgN/A
12:50 AM57 °FLight rain. Passing clouds.5 mph82%29.98 "HgN/A
12:20 AM57 °FLight rain. Partly cloudy.6 mph82%30.01 "HgN/A
11:20 PM
Wed, Sep 2
57 °FLight rain. Clear.6 mph82%30.01 "HgN/A
10:50 PM57 °FClear.3 mph77%30.01 "Hg10 mi
10:20 PM57 °FClear.3 mph77%30.01 "Hg10 mi
9:50 PM59 °FClear.5 mph77%30.01 "Hg10 mi
9:20 PM59 °FClear.5 mph77%30.01 "Hg10 mi
8:50 PM59 °FSunny.3 mph77%30.01 "Hg10 mi
8:20 PM61 °FBroken clouds.5 mph72%30.01 "HgN/A
7:50 PM61 °FBroken clouds.3 mph72%30.01 "HgN/A
7:20 PM61 °FBroken clouds.3 mph72%30.01 "HgN/A
6:50 PM61 °FBroken clouds.3 mph68%30.01 "HgN/A
6:20 PM63 °FScattered clouds.1 mph68%29.98 "HgN/A
5:20 PM61 °FPartly sunny.2 mph72%30.01 "HgN/A
4:50 PM61 °FBroken clouds.3 mph72%30.01 "HgN/A
4:20 PM61 °FPartly sunny.8 mph68%30.01 "HgN/A
3:50 PM63 °FBroken clouds.10 mph68%30.01 "HgN/A
3:20 PM63 °FBroken clouds.12 mph64%30.01 "HgN/A
2:50 PM64 °FSprinkles. Scattered clouds.6 mph64%30.01 "HgN/A
2:20 PM63 °FSprinkles. Broken clouds.8 mph73%30.01 "HgN/A
1:50 PM64 °FScattered showers. Scattered clouds.10 mph60%30.01 "HgN/A
1:20 PM66 °FScattered clouds.9 mph64%30.01 "HgN/A
12:50 PM64 °FPassing clouds.10 mph64%30.01 "HgN/A
12:20 PM64 °FScattered clouds.10 mph64%30.04 "HgN/A
11:50 AM63 °FScattered clouds.8 mph73%30.04 "HgN/A
11:20 AM63 °FScattered clouds.6 mph68%30.04 "HgN/A
Weather by CustomWeather, © 2015

See weather overviewHow to use our weather pages